Terug naar catalogus

STARLINK-34065

ActiefCommunicatieVLEO
NORAD 63813·PAYLOAD·🇺🇸 United States

Gelanceerd May 4, 2025 vanaf Cape Canaveral Space Force Station

Loading…

Volgende Passages (komende 24 uur)

TLE

VersSource: CelesTrak SupGP

Epoch: Sep 15, 2026, 03:54 UTC

1 63813C 25092K   26258.16298611  .00003498  00000+0  12671-3 0  2587
2 63813  43.0002 178.6581 0001380 271.9254 172.6080 15.27571070    10

Volg STARLINK-34065 in realtime met AllMySat

Download on the App Store